Location: ???? ?????
(30.0052°N, 31.2891°E)
Time: 17:34:38
(UTC+00:00)

SEDSat Delta rocket - Visible Passes

Search period start: 02 March 2024 00:00
Search period end: 12 March 2024 00:00
Orbit: 531 x 985 km, 31.4° (Epoch: 02 March)

Date Brightness Start Highest point End Pass type
(mag) Time Alt. Az. Time Alt. Az. Time Alt. Az.
02 Mar 3.6 02:12:17 90° N 02:12:17 90° N 02:17:58 10° ESE visible
02 Mar 4.2 03:52:46 10° W 03:58:21 42° SSW 04:03:16 10° SE visible
03 Mar 5.1 01:31:19 36° E 01:31:19 36° E 01:34:37 10° E visible
03 Mar 4.0 03:11:15 23° W 03:14:53 51° SSW 03:20:11 10° SE visible
04 Mar 6.4 00:50:26 14° E 00:50:26 14° E 00:51:10 10° E visible
04 Mar 3.8 02:30:22 53° WSW 02:31:22 60° SSW 02:37:00 10° ESE visible
05 Mar 4.5 01:49:33 46° SE 01:49:33 46° SE 01:53:43 10° ESE visible
05 Mar 4.9 03:29:29 13° W 03:33:36 25° SSW 03:38:09 10° SSE visible
06 Mar 6.0 01:08:47 19° ESE 01:08:47 19° ESE 01:10:19 10° ESE visible
06 Mar 4.7 02:48:44 29° SW 02:50:07 32° SSW 02:55:15 10° SSE visible
07 Mar 4.8 02:08:03 34° S 02:08:03 34° S 02:12:10 10° SE visible
07 Mar 5.8 18:12:49 10° SSW 18:13:44 14° SSW 18:13:44 14° SSW visible
08 Mar 5.9 01:27:26 18° SE 01:27:26 18° SE 01:28:57 10° SE visible
08 Mar 5.6 03:07:23 13° SW 03:08:37 14° SW 03:11:40 10° S visible
08 Mar 5.1 17:30:04 10° SSW 17:33:14 20° SSE 17:33:14 20° SSE visible
09 Mar 5.6 02:26:50 17° SSW 02:26:50 17° SSW 02:29:15 10° S visible
09 Mar 5.3 16:47:38 10° S 16:50:39 15° SE 16:52:42 13° ESE visible
09 Mar 5.4 18:30:43 10° SW 18:32:40 22° SW 18:32:40 22° SW visible
10 Mar 6.2 01:46:19 11° SSE 01:46:19 11° SSE 01:46:27 10° SSE visible
10 Mar 4.2 17:47:35 10° SW 17:52:04 41° S 17:52:04 41° S visible
11 Mar 4.3 17:04:33 10° SW 17:09:08 34° SSE 17:11:26 25° ESE visible
11 Mar 5.6 18:49:31 10° WSW 18:51:22 22° WSW 18:51:22 22° WSW visible
